GFSCGP_700_rhum_069.txt.gz
RH
21 28 20 14 16 19 35 35 31 24 27 30 34 30 30 36 44 52 56 71 81 72 50 30 30 26 22 25 36 65 48 51 56 47 56 63 53 52 53 54 55 54 51 49
38 28 12 16 30 36 36 35 30 32 32 30 28 26 29 39 42 54 56 63 66 67 44 49 35 24 27 30 30 35 34 32 34 35 40 40 44 45 45 48 50 50 48 47
39 16 17 24 32 36 35 31 29 28 30 33 31 30 38 38 47 54 62 68 64 61 39 37 34 18 18 24 27 30 30 32 32 32 34 43 45 45 46 46 47 46 47 51
51 24 40 42 37 33 33 29 28 32 33 29 30 35 32 34 39 43 57 55 59 62 41 37 22 18 15 13 17 19 22 21 20 20 18 24 32 34 36 38 40 39 45 52
45 41 31 38 37 35 32 32 35 34 36 30 29 39 39 40 38 41 40 50 55 50 26 20 22 24 22 22 19 14 13 12 12 15 16 15 18 22 27 32 38 50 58 64
33 27 37 34 33 34 31 32 34 35 36 43 31 40 42 38 32 35 33 43 49 46 26 23 26 30 26 29 30 28 25 27 30 31 34 36 40 38 39 49 54 60 64 68
38 37 32 32 32 32 31 33 41 51 60 59 44 49 40 34 34 31 31 34 37 32 28 34 30 23 26 25 31 32 32 32 35 38 39 42 42 49 57 60 58 67 69 71
41 39 34 31 31 30 32 32 39 60 78 70 43 43 32 29 27 30 27 31 32 38 39 43 45 38 42 24 27 32 32 33 34 34 37 44 52 53 58 66 65 66 70 74
34 37 33 33 32 30 32 35 33 46 72 87 61 39 32 29 28 27 26 34 39 44 48 55 53 54 48 55 41 28 28 31 33 36 37 42 49 56 60 60 64 67 72 78
34 35 34 31 31 32 33 37 41 56 97 97 56 54 30 25 25 25 29 32 33 38 50 53 54 52 56 56 60 61 39 30 31 33 35 37 40 58 68 67 78 80 80 97
36 38 37 35 31 33 34 33 35 50 48 73 66 49 30 28 35 29 26 31 32 38 42 47 53 57 54 55 60 65 68 55 42 39 35 36 39 45 60 70 86 94 97 94
34 39 52 39 36 31 33 30 32 46 47 44 47 47 35 33 28 26 29 30 31 33 31 26 36 51 61 66 64 63 67 73 58 57 57 69 64 61 87 99 98 90 81 70
38 50 67 45 40 33 31 31 31 34 46 44 61 45 36 32 31 29 28 30 32 33 34 31 24 22 37 50 69 78 80 85 94 79 76 94 70 92 79 68 66 74 69 70
45 64 67 54 54 42 32 31 32 34 37 38 45 41 35 34 33 30 30 30 30 33 35 36 39 30 26 29 56 73 79 77 47 41 60 66 72 69 72 70 62 58 67 66
47 61 57 48 43 48 44 37 32 29 36 42 43 42 39 34 32 30 32 32 31 33 38 38 36 37 32 23 24 28 35 41 48 47 48 49 43 49 50 46 52 63 65 60
52 57 57 52 49 47 52 43 32 30 34 32 37 37 33 30 29 31 29 34 34 34 37 37 38 42 36 32 30 32 34 37 40 44 42 41 42 46 46 50 63 64 62 64
46 47 49 55 54 46 50 48 40 39 30 28 27 28 28 30 29 25 28 29 32 32 37 40 41 36 35 34 36 37 35 34 39 36 37 40 39 42 56 58 58 62 61 35
47 44 47 60 59 60 43 40 39 37 30 30 29 28 26 25 26 25 26 31 33 36 36 37 34 26 24 33 41 38 42 39 36 25 37 40 44 52 55 58 43 28 24 23
49 43 46 66 51 49 42 38 35 35 32 30 29 27 27 27 27 26 28 31 32 36 36 31 25 23 21 26 37 43 42 29 26 37 49 53 55 47 32 28 24 22 26 30
70 44 54 57 54 59 45 37 36 37 36 33 29 30 31 29 30 28 29 35 35 35 30 27 21 22 25 26 29 31 29 34 39 44 42 33 32 31 26 24 26 30 33 33
56 54 59 65 74 56 49 38 39 44 39 32 32 32 32 32 31 33 34 36 35 30 32 36 28 19 25 30 31 34 38 39 35 32 34 36 33 28 27 29 32 36 39 42
47 57 62 65 81 81 54 49 42 37 37 34 36 36 38 38 38 37 35 34 33 32 33 42 40 25 28 33 35 40 41 38 34 34 38 39 35 30 31 34 38 42 48 56
52 48 50 58 69 66 50 55 53 48 44 43 39 40 36 45 42 40 38 38 38 39 42 46 47 39 34 38 42 46 42 37 34 37 41 41 36 36 39 44 47 54 63 65
58 52 49 58 58 68 63 68 70 46 49 51 42 38 44 48 50 47 45 43 44 44 47 50 51 48 42 44 46 50 46 39 37 40 43 43 44 48 52 56 63 70 75 69
35 40 39 64 59 88 80 97 87 63 57 62 52 49 47 47 46 46 47 50 50 52 53 53 53 54 50 50 53 54 52 46 41 44 47 51 56 64 73 82 85 86 82 71
40 47 54 58 56 64 50 37 32 46 66 69 58 52 53 50 48 49 49 49 51 53 56 57 58 58 58 56 58 61 60 55 48 49 56 64 77 88 97 100 98 97 90 68

GFSCGP_700_rhum_072.txt.gz
RH
28 27 22 17 15 16 17 24 37 36 32 34 31 32 32 31 39 36 42 44 35 30 36 42 35 26 25 28 71 98 99 100 100 98 98 99 97 98 84 78 75 67 63 57
37 23 19 17 16 19 20 36 37 36 33 31 31 29 28 30 39 44 45 43 36 33 32 41 38 24 27 25 28 38 42 51 62 91 91 97 99 89 71 64 62 61 58 49
29 23 21 20 14 20 35 37 36 36 28 30 34 34 32 32 39 45 49 52 47 49 49 35 23 18 24 26 27 28 30 29 31 34 41 59 79 63 50 46 53 52 52 49
39 21 27 30 25 23 36 34 35 31 32 36 32 36 34 34 37 44 38 46 44 38 42 32 19 16 17 21 22 29 30 30 28 27 32 34 36 38 41 46 47 51 50 45
35 27 30 34 31 38 38 36 33 34 36 38 35 35 34 37 39 39 39 43 36 36 28 21 19 19 18 14 12 12 20 23 25 21 16 25 32 33 38 43 44 46 44 43
35 28 42 26 34 43 37 36 33 36 34 44 37 37 35 28 34 37 43 39 32 33 30 28 27 23 23 23 21 16 14 13 13 19 19 18 21 27 33 36 39 42 48 51
45 30 33 44 38 37 38 36 40 45 57 60 43 52 39 30 33 32 34 38 33 33 34 29 25 19 20 21 26 26 26 25 26 29 31 33 32 24 35 35 39 48 55 61
45 38 35 30 36 35 34 33 38 53 68 61 43 44 32 34 33 34 32 34 34 36 37 33 38 33 24 20 22 26 27 27 28 30 30 33 36 39 45 50 54 56 60 67
41 39 29 31 34 33 33 33 32 38 74 80 47 41 34 31 30 35 32 29 29 34 38 39 42 42 42 47 41 25 24 27 30 29 32 35 39 45 49 52 55 62 65 72
38 36 26 34 35 34 33 30 38 48 79 83 59 55 38 30 30 29 27 27 32 36 40 44 46 50 51 51 57 58 60 49 38 35 35 36 38 41 54 64 69 76 74 80
46 37 36 33 36 35 34 34 38 40 50 80 74 46 33 32 28 25 26 29 33 38 39 48 50 56 56 56 59 57 61 66 67 58 45 50 49 44 47 62 75 86 99 100
42 46 39 36 36 37 36 35 32 47 70 68 67 47 34 30 30 31 28 26 27 31 38 43 49 47 49 47 52 57 64 67 72 65 62 69 78 88 95 80 83 97 91 94
40 46 45 40 38 40 45 39 34 33 40 54 65 50 34 32 30 29 28 27 30 29 31 31 29 27 30 38 43 54 66 68 63 68 78 64 63 82 91 97 96 94 86 62
41 40 40 42 42 46 47 38 36 32 37 40 51 50 45 35 36 34 32 31 31 31 32 32 34 33 28 25 22 27 40 55 62 78 84 62 51 65 93 83 85 78 60 59
43 42 40 41 44 47 47 44 42 35 32 36 38 44 44 37 34 34 32 31 31 31 32 32 36 36 35 25 24 24 24 26 44 55 53 52 47 49 57 57 64 58 51 60
52 46 46 49 52 64 56 54 48 45 46 33 34 39 39 36 38 37 34 32 29 31 32 34 36 35 36 35 34 32 32 31 40 49 52 39 38 42 47 51 53 50 55 66
65 57 51 58 61 65 67 56 54 61 46 41 35 35 37 34 33 33 31 31 30 33 33 34 36 38 38 37 36 36 37 40 45 37 35 39 40 34 45 50 48 52 68 70
75 68 63 54 59 88 73 48 51 53 48 42 36 34 31 30 29 29 30 27 30 31 31 32 33 36 34 33 32 26 29 47 46 44 44 39 30 42 58 54 52 65 66 43
85 80 71 57 57 66 61 46 47 47 45 40 37 32 30 28 28 27 27 26 28 31 32 34 36 35 29 25 23 21 23 40 47 55 41 32 40 52 57 66 51 32 28 25
82 81 62 55 61 84 54 45 43 49 46 43 38 32 31 29 27 27 27 27 28 35 36 37 35 29 27 26 21 23 27 32 43 37 36 44 54 54 34 32 32 28 25 26
84 83 67 69 60 65 52 48 43 45 47 40 47 35 34 34 32 29 31 31 36 37 36 33 26 25 35 30 22 28 32 32 34 38 40 37 32 34 35 35 32 28 30 34
69 82 73 68 65 71 53 50 51 53 51 44 41 43 38 38 39 34 34 36 37 36 32 33 34 36 43 43 32 32 34 35 39 41 36 33 34 37 39 37 34 35 39 46
68 61 63 58 53 51 52 48 66 62 52 45 50 47 37 34 35 40 38 39 38 37 38 38 40 43 47 49 46 38 38 41 45 41 36 34 36 39 41 41 41 45 51 56
56 56 52 46 44 45 56 54 58 61 61 59 54 55 50 52 47 40 45 47 46 46 44 45 45 47 48 50 50 50 42 45 49 48 42 38 39 40 43 47 54 61 71 76
45 43 51 54 55 50 51 56 70 64 69 65 64 62 56 58 60 57 51 49 48 51 51 50 50 49 47 48 49 52 52 48 52 54 52 47 47 50 52 58 69 81 91 97
55 46 46 42 35 44 58 48 43 32 49 89 70 64 60 55 55 59 54 56 57 56 57 50 48 50 54 55 54 55 57 57 59 61 62 60 64 74 86 90 99 100 100 98

GFSCGP_700_rhum_075.txt.gz
RH
20 33 25 25 24 26 22 24 23 34 35 37 34 33 33 35 28 32 39 41 42 47 48 36 19 13 25 52 94 92 98 98 99 100 100 100 100 98 84 83 83 64 61 62
24 34 26 30 29 30 29 29 20 26 34 36 33 34 32 30 30 32 42 39 42 42 51 38 21 15 25 27 57 86 92 96 96 97 100 100 98 91 89 93 72 64 62 61
19 23 28 30 31 30 27 26 19 35 34 34 32 31 34 34 32 33 35 37 39 37 56 48 20 14 22 25 24 27 37 69 97 100 100 99 100 97 97 82 71 68 65 64
28 21 28 28 34 28 28 13 32 36 39 40 34 40 31 30 31 36 35 35 31 35 39 25 17 15 19 28 26 20 17 24 41 57 71 91 93 96 92 80 67 66 63 60
31 23 24 35 22 36 21 14 34 37 39 39 37 40 36 31 33 34 34 30 32 34 29 19 20 19 18 19 24 27 27 24 20 24 25 32 45 55 58 54 48 48 50 49
30 26 29 27 22 32 22 34 42 42 44 50 37 38 36 34 32 29 32 31 30 33 28 31 23 20 20 19 17 15 15 17 20 17 18 26 30 37 41 41 43 45 46 47
48 36 31 32 40 44 38 44 48 50 57 61 36 48 36 29 34 35 35 31 30 34 30 31 21 19 19 21 24 23 20 20 19 18 19 18 20 28 33 36 38 41 42 42
48 47 32 33 34 41 39 42 47 55 63 53 38 53 35 31 36 34 32 31 31 34 33 31 29 26 21 21 24 27 27 26 25 26 27 28 28 25 24 28 34 36 38 40
42 47 31 31 28 39 38 39 36 41 73 77 43 36 30 29 33 31 29 33 33 32 32 33 37 38 39 36 31 24 25 30 30 29 30 31 32 34 37 40 42 44 48 51
43 42 35 36 34 33 37 35 40 45 79 77 58 50 39 27 34 30 31 33 30 30 30 32 39 42 45 48 52 56 58 42 31 33 34 35 36 37 40 43 50 54 58 66
43 48 41 34 40 36 39 38 36 36 41 67 76 48 32 32 33 30 29 28 26 25 32 36 40 43 48 53 53 54 62 62 54 57 54 43 39 39 41 44 47 62 75 79
38 44 50 37 38 36 38 35 34 40 69 55 52 52 35 37 32 30 27 26 29 26 27 31 35 39 44 52 50 49 53 60 65 61 70 98 88 66 72 68 71 75 74 74
55 48 53 49 39 33 42 39 38 40 40 51 69 53 31 40 32 29 28 29 28 27 29 30 30 31 29 37 40 35 42 51 60 64 72 73 69 69 62 69 77 79 81 96
66 52 48 51 46 34 39 40 39 40 44 50 53 39 36 37 36 34 34 30 29 30 30 31 32 31 32 32 28 24 22 30 36 44 55 58 70 54 67 53 73 87 83 84
69 66 52 44 42 42 43 44 43 46 46 41 42 40 36 33 35 34 34 34 32 32 32 32 32 32 33 34 34 27 33 29 26 30 48 54 54 57 69 53 49 55 58 63
92 69 60 47 43 44 46 45 47 51 56 45 40 38 32 31 38 38 38 36 35 32 32 32 32 32 34 35 35 34 35 37 32 38 49 57 57 57 54 44 47 48 52 61
99 88 61 57 46 51 59 51 54 55 57 56 46 40 38 35 35 37 36 37 37 38 36 31 33 32 32 36 37 37 38 35 36 48 48 54 55 52 48 43 42 54 62 64
98 100 87 68 63 91 65 48 52 48 51 51 48 42 40 37 36 36 34 34 34 33 32 29 32 31 35 34 37 36 34 32 31 55 54 60 59 58 46 33 38 58 70 75
84 98 94 96 64 58 64 53 60 62 57 51 49 47 37 35 34 31 30 30 29 29 28 31 31 33 36 39 38 28 24 23 24 33 65 71 68 58 37 41 54 63 72 77
59 91 96 95 83 86 57 47 55 73 59 49 49 47 42 34 32 32 28 27 27 26 27 30 34 37 40 36 29 28 26 24 25 30 42 55 43 38 47 64 65 50 35 31
75 80 86 89 98 72 54 52 53 80 65 63 75 53 45 41 40 34 32 29 27 27 28 36 41 40 33 28 29 36 32 26 28 33 35 38 41 45 40 33 33 35 35 34
58 64 76 83 94 87 57 55 59 57 59 59 63 58 53 47 44 39 35 32 30 29 33 40 38 32 33 34 38 42 43 38 35 36 39 43 42 36 33 34 37 38 39 41
69 60 56 56 70 66 69 51 51 57 88 64 57 52 51 50 45 38 36 36 33 37 40 36 38 39 39 41 45 47 48 48 44 40 43 46 42 37 35 37 39 43 49 54
45 42 64 71 68 75 59 56 51 52 72 84 61 60 56 56 50 39 40 40 40 39 39 44 45 46 47 47 46 47 48 50 53 50 45 50 50 47 44 45 49 53 57 63
52 50 46 58 76 62 50 44 46 53 49 64 67 59 64 63 57 48 48 47 46 45 48 52 52 51 50 49 48 50 51 52 54 58 56 57 60 59 57 59 64 68 74 83
59 71 70 52 42 38 42 40 39 50 40 47 56 50 64 65 67 60 60 64 65 64 65 63 58 54 53 55 56 57 60 62 66 70 74 73 74 76 75 79 87 93 98 98

GFSCGP_700_rhum_078.txt.gz
RH
16 32 27 21 22 25 34 30 23 21 22 31 35 34 32 33 33 34 30 42 46 47 44 45 35 20 20 41 83 95 94 98 99 100 100 99 100 100 100 100 99 98 85 73
22 29 18 23 24 30 32 35 25 17 17 26 35 32 32 34 33 32 34 42 45 47 48 59 35 17 23 33 72 90 99 99 100 100 100 100 99 99 100 100 93 90 82 75
19 14 14 26 25 30 30 35 26 23 14 25 36 33 29 32 33 34 32 38 44 41 47 57 38 14 22 28 37 78 87 97 100 100 100 100 99 99 99 97 96 96 83 72
38 26 25 35 30 28 35 28 25 20 31 36 40 44 34 32 32 30 31 35 39 33 40 39 38 18 16 24 22 31 67 87 98 98 97 100 98 99 97 87 87 84 75 70
33 29 26 32 33 36 28 32 27 21 26 36 41 46 39 35 34 31 27 31 32 35 35 41 41 25 14 19 22 17 19 33 55 79 95 98 88 94 100 91 90 78 65 64
21 33 32 32 27 40 31 37 30 32 44 63 48 45 39 35 34 29 29 30 30 32 35 44 35 23 18 15 15 18 20 15 20 25 32 37 43 56 72 81 74 64 61 62
49 48 37 36 33 41 36 37 55 58 71 67 39 43 39 33 31 31 32 37 34 29 36 41 30 19 19 20 20 18 18 19 18 18 24 27 29 31 34 40 43 47 51 48
35 40 36 37 41 40 37 39 51 61 67 54 42 48 36 27 25 29 31 36 32 29 30 36 33 32 26 21 23 24 24 22 21 24 26 26 28 31 34 40 41 45 45 48
34 38 30 28 26 29 49 56 42 48 69 70 45 36 33 30 16 22 29 34 31 31 30 34 34 37 35 33 25 23 26 28 27 26 26 28 27 23 28 35 39 41 44 47
37 41 36 39 38 34 36 41 50 52 83 82 60 51 35 24 22 27 28 29 31 31 29 32 34 38 40 45 50 52 49 37 31 32 31 30 27 25 24 26 27 27 29 32
49 50 41 36 42 39 42 40 42 42 43 59 66 47 33 32 36 31 28 33 31 28 27 31 35 38 42 47 50 53 52 55 54 40 34 34 34 32 32 32 34 37 39 43
68 47 47 38 41 41 40 35 39 45 62 55 46 42 33 29 36 34 31 29 26 29 22 29 33 37 42 48 52 56 55 52 53 53 56 69 70 72 56 48 50 47 53 62
95 66 52 45 36 41 45 46 40 41 43 48 57 45 34 30 34 36 33 30 27 29 27 28 32 29 27 35 35 44 49 53 52 53 52 60 70 92 80 69 55 52 62 83
99 100 75 53 44 36 35 35 43 42 42 45 44 44 40 35 35 38 37 32 29 30 28 30 31 31 30 31 30 28 25 23 26 36 39 47 60 72 76 75 73 68 78 81
97 99 83 67 56 41 44 39 36 39 42 45 43 43 40 37 31 34 31 37 33 31 29 31 32 33 32 32 33 30 29 30 32 32 30 33 47 60 65 63 62 55 52 58
89 93 90 68 60 54 50 41 38 42 50 47 43 46 45 43 38 34 32 40 37 36 34 32 33 32 33 33 33 35 31 33 36 36 37 38 40 46 56 60 53 49 51 50
98 96 99 66 61 56 58 51 46 44 47 47 50 52 50 41 40 35 33 37 38 38 36 35 34 34 32 33 32 36 36 36 39 34 31 60 49 52 57 55 49 48 47 49
89 89 96 84 69 87 62 52 50 52 48 47 49 55 55 45 40 38 35 35 36 38 39 37 38 34 33 32 34 35 38 40 41 36 27 53 54 50 56 53 57 60 52 43
92 94 99 96 91 73 66 57 53 51 45 56 56 57 52 49 45 40 36 34 34 32 35 38 33 29 32 31 33 38 40 42 34 33 25 32 53 61 64 76 85 60 42 50
68 76 88 98 92 95 58 54 56 64 69 52 61 58 58 52 46 38 33 33 29 28 31 30 30 28 33 33 36 41 42 32 29 28 28 31 40 50 56 56 41 43 53 66
85 94 98 98 78 75 55 51 58 67 49 59 62 58 61 57 56 41 32 32 32 31 28 27 27 27 32 37 41 42 33 30 33 30 31 35 37 40 41 42 48 55 57 51
76 70 89 100 95 88 52 63 66 66 58 60 61 84 78 75 56 46 38 35 34 32 30 28 28 32 38 42 40 30 32 40 42 42 41 39 36 38 43 46 42 36 36 38
66 65 67 66 57 59 59 67 69 70 74 57 62 82 92 82 82 64 45 40 38 35 33 31 32 43 42 34 34 36 41 47 47 47 49 48 44 42 46 44 39 38 39 42
49 56 56 53 46 64 68 69 62 74 66 56 53 60 78 80 80 66 47 44 40 37 37 46 41 37 39 40 42 44 47 49 51 52 54 55 56 53 55 54 53 53 53 55
66 59 52 49 47 44 49 55 67 66 64 57 48 58 65 69 86 86 78 56 45 51 55 47 42 45 46 48 50 50 53 55 56 57 59 63 67 71 73 73 74 77 82 86
65 63 57 59 62 60 42 43 40 40 52 54 51 57 56 56 76 72 67 74 65 72 66 92 77 70 62 67 65 64 67 59 62 66 71 79 82 82 90 97 98 98 97 97

GFSCGP_700_rhum_084.txt.gz
RH
13 30 39 34 23 36 32 36 32 28 33 34 29 26 22 22 32 31 30 33 33 35 41 39 40 38 23 17 26 64 98 84 93 100 98 100 100 99 99 99 96 92 92 99
42 42 36 33 42 50 44 38 33 30 33 40 31 28 22 22 29 35 35 33 32 34 39 39 44 37 17 18 25 65 91 97 100 100 100 100 100 100 99 99 99 95 94 94
45 38 34 45 50 47 44 40 35 33 34 38 37 33 26 18 27 30 29 33 33 31 37 42 38 35 15 17 22 61 74 98 99 99 100 100 100 100 100 99 96 97 98 100
43 25 45 40 49 45 41 37 39 40 38 32 37 25 20 27 30 33 31 31 32 30 37 32 24 25 14 15 15 36 72 87 93 100 100 98 98 97 99 100 98 99 98 98
47 37 29 48 47 46 41 38 34 40 41 39 37 35 22 22 28 28 28 32 30 30 36 38 32 20 14 13 13 19 43 84 99 97 100 100 98 98 100 100 99 99 98 98
52 49 37 40 45 49 50 50 49 49 44 41 39 30 23 22 30 30 30 32 30 27 33 40 36 15 15 11 16 15 23 46 88 99 100 99 99 98 97 100 100 100 100 97
21 33 43 35 41 46 51 43 38 44 45 38 29 30 26 30 34 31 30 33 36 34 29 33 33 18 15 16 16 19 18 24 44 81 96 100 99 99 100 100 99 100 100 97
27 19 21 13 33 33 47 44 35 40 36 32 34 32 30 33 32 34 29 29 26 38 32 29 30 25 16 17 18 19 20 21 25 33 54 80 91 99 99 100 98 100 93 80
33 29 28 30 30 26 36 44 40 40 38 48 34 36 38 34 36 35 35 35 27 34 38 28 27 21 22 19 18 21 21 22 23 26 28 33 48 61 69 88 96 98 89 88
53 43 36 38 45 38 29 36 44 44 45 43 28 34 31 33 34 33 38 38 26 31 35 28 26 24 27 26 22 20 22 22 22 24 27 28 29 31 37 45 49 65 80 82
64 57 47 45 45 42 45 46 43 38 39 36 34 26 33 34 34 36 37 34 28 32 32 28 27 34 34 30 28 23 20 22 23 24 25 26 29 30 31 32 33 35 42 48
82 84 56 45 47 45 44 42 44 43 31 41 39 34 33 39 43 34 36 36 38 32 32 32 30 35 35 35 39 40 37 31 24 25 26 26 27 28 29 30 32 35 37 41
86 97 66 49 45 46 46 47 46 44 43 44 51 38 36 34 36 37 37 39 37 34 33 32 33 34 36 37 41 44 45 47 47 48 41 32 30 30 30 31 29 34 33 30
57 68 85 73 75 85 78 68 49 47 48 47 42 38 39 40 41 38 38 34 37 35 32 28 25 29 35 38 40 43 48 51 53 52 51 54 54 48 50 46 42 49 64 50
83 66 56 61 68 68 70 73 69 55 44 45 43 40 36 36 39 40 42 35 35 36 35 33 29 30 30 30 34 42 46 50 52 53 43 44 48 58 64 64 65 65 59 65
100 98 97 93 75 67 73 68 66 60 53 42 41 42 42 45 43 45 44 44 35 37 35 36 32 31 32 30 25 31 32 27 28 25 27 31 33 48 46 58 68 75 68 66
100 98 95 73 71 82 62 66 70 52 52 50 48 44 46 47 45 44 42 45 40 39 39 41 36 32 32 33 31 30 30 25 27 29 29 27 29 33 35 38 44 49 62 69
100 92 98 76 80 76 58 58 98 68 51 48 46 48 44 44 43 49 55 37 33 35 39 43 44 40 36 33 33 33 35 33 32 33 30 32 38 37 35 45 50 51 56 65
93 95 92 78 67 66 72 68 99 96 59 47 45 47 47 51 56 58 58 47 44 36 37 41 46 48 40 34 35 35 35 35 36 37 36 34 38 40 40 36 46 53 51 56
90 99 85 71 82 57 47 61 86 100 80 70 64 67 62 69 67 62 64 58 58 55 44 42 44 42 47 43 42 38 36 35 36 37 38 41 43 43 42 36 34 44 51 53
95 100 93 80 97 70 81 69 91 99 99 89 92 85 70 80 72 70 63 68 66 59 51 45 40 39 35 43 46 42 39 38 39 36 39 41 44 44 39 30 28 30 37 42
96 90 88 90 96 74 79 85 79 95 99 92 96 98 79 77 78 82 76 69 69 61 54 50 43 34 31 31 34 39 36 32 35 34 37 43 47 45 33 32 34 36 40 43
61 87 95 88 72 90 82 81 76 74 92 85 86 77 66 80 84 82 70 80 78 64 60 49 45 43 33 31 32 39 37 35 34 39 48 51 49 36 35 38 40 42 43 43
66 61 84 81 94 93 85 55 59 50 55 72 80 81 63 64 67 68 73 79 79 75 73 70 54 49 41 40 39 34 35 36 41 53 61 51 38 39 43 46 49 51 51 52
64 68 70 69 61 55 71 50 46 45 47 55 53 61 52 62 64 65 64 82 75 76 94 92 75 60 51 50 53 47 50 68 72 63 50 49 48 53 57 56 59 61 63 68
78 76 84 74 57 42 34 32 29 33 30 42 41 45 65 69 67 85 88 82 78 86 79 96 98 99 94 98 71 70 75 92 100 86 81 73 68 64 72 83 73 76 80 93

GFSCGP_700_rhum_087.txt.gz
RH
10 17 30 32 28 27 31 28 24 26 26 28 29 28 26 23 20 20 30 34 42 57 62 33 37 37 37 21 13 22 48 81 99 96 89 93 93 98 99 100 100 100 100 99
26 23 26 35 31 33 38 31 30 29 29 29 30 30 28 26 24 20 21 30 39 54 48 32 38 41 39 19 13 23 60 83 96 96 96 99 100 100 100 100 99 96 90 93
37 31 32 34 38 47 39 38 37 33 30 28 31 31 29 27 27 26 20 27 30 44 59 31 37 38 36 18 14 22 60 75 80 90 98 100 99 100 100 99 99 84 75 92
35 33 38 38 36 40 41 40 37 35 32 30 28 26 26 24 20 19 20 30 33 37 61 32 35 30 20 14 13 20 57 76 85 94 98 98 98 99 100 100 98 100 98 96
34 40 41 46 39 35 42 39 38 36 30 31 30 27 26 27 23 21 25 29 34 39 54 53 36 36 18 13 12 15 33 68 73 92 100 99 99 100 100 100 99 99 98 99
46 44 47 35 44 49 49 41 39 36 33 36 33 31 28 25 21 25 26 25 27 36 50 64 36 36 23 13 12 14 21 38 71 86 96 98 99 99 100 99 99 92 97 99
40 34 45 47 47 49 50 43 38 42 41 38 29 27 28 24 24 25 26 27 28 34 47 65 43 32 21 14 13 17 19 23 46 82 92 98 99 99 100 100 100 99 95 99
24 20 18 31 34 38 43 44 39 43 38 32 27 27 26 25 26 25 28 28 33 40 48 61 55 29 22 15 16 19 19 21 24 46 82 93 94 86 97 99 100 100 100 100
28 24 22 18 22 30 29 41 37 34 34 39 36 31 30 29 29 31 31 30 32 34 44 57 67 28 22 15 16 18 20 20 21 23 38 66 83 92 90 97 96 99 100 99
49 42 32 27 31 24 24 17 29 32 39 42 27 25 23 28 30 31 31 33 34 31 37 55 50 30 22 19 18 18 20 21 22 22 24 28 38 57 76 98 96 94 95 100
67 55 40 37 34 32 30 25 28 33 32 32 32 21 26 28 30 30 36 39 40 39 36 49 47 30 22 23 22 20 19 20 19 20 23 24 25 29 43 49 62 71 87 85
86 78 52 40 36 36 32 32 30 33 34 27 28 29 30 33 33 36 36 44 43 35 45 49 54 33 24 28 30 23 21 20 21 21 22 23 27 28 29 30 34 42 45 57
75 79 58 45 40 42 41 41 38 37 36 37 41 32 31 28 40 38 36 40 42 37 42 56 40 34 29 32 29 33 35 31 26 23 23 23 24 26 28 30 32 35 41 52
59 52 54 55 77 62 48 39 43 41 39 38 37 33 31 40 33 36 37 40 41 42 40 55 37 33 29 36 35 36 38 41 43 40 40 35 31 27 27 28 30 30 31 30
68 62 49 44 40 46 53 52 51 48 48 44 39 35 32 30 30 41 37 38 42 41 41 42 35 34 34 34 38 38 39 43 47 50 48 50 51 50 42 31 32 31 32 39
98 74 70 60 51 50 45 47 45 44 45 44 43 39 32 34 37 38 33 36 40 41 42 46 38 35 34 35 36 40 41 41 47 49 53 55 58 58 55 51 46 52 56 61
95 90 89 68 47 64 55 43 44 51 58 52 42 37 37 35 39 43 43 43 42 43 47 47 37 39 33 32 31 30 34 41 45 48 51 46 35 36 51 53 49 51 50 66
97 90 94 78 62 59 37 74 69 74 62 70 61 40 36 37 40 44 40 43 51 56 51 36 46 43 41 36 35 31 29 36 38 31 30 27 26 25 29 33 35 35 36 39
96 91 97 81 58 47 44 52 55 55 51 86 62 36 35 34 35 40 44 55 54 50 43 37 34 46 45 40 39 36 33 29 30 25 27 29 30 31 34 36 36 40 36 32
82 92 88 72 60 56 78 76 52 64 71 99 99 81 62 49 69 74 62 53 55 55 47 44 42 35 42 46 46 43 37 35 34 27 30 31 32 34 38 39 35 41 40 42
76 90 90 75 62 66 94 88 80 90 96 88 98 99 97 77 84 92 86 76 70 67 64 57 54 47 42 44 48 51 48 50 50 48 44 35 35 38 40 41 45 45 44 38
88 90 92 79 62 68 91 83 88 97 87 92 98 98 89 81 89 85 65 62 67 70 71 68 60 48 46 45 49 53 60 55 53 44 45 42 39 40 47 51 52 52 49 40
84 73 86 63 60 97 90 91 84 73 64 57 96 99 99 94 94 90 80 63 67 66 73 74 71 58 51 44 44 51 43 44 48 51 50 57 48 46 45 54 60 61 56 36
62 89 96 90 83 95 99 92 67 54 49 48 54 66 68 54 84 92 68 62 63 78 75 82 87 75 56 49 43 38 36 34 38 46 49 44 48 55 57 68 71 68 63 55
76 92 64 61 84 96 94 98 83 40 35 41 39 52 47 51 72 61 54 56 66 82 86 90 87 96 84 65 54 51 45 43 46 48 51 48 70 78 74 82 73 70 74 81
91 93 84 90 80 66 71 50 38 41 36 31 29 30 44 37 70 66 68 69 65 73 87 86 97 100 100 94 90 88 82 84 93 93 92 96 98 100 100 97 82 96 89 82

GFSCGP_700_rhum_093.txt.gz
RH
12 10 16 13 24 40 43 44 41 39 37 33 33 35 36 29 27 26 25 25 23 22 28 32 39 39 39 32 35 37 25 12 14 34 64 81 99 94 84 87 81 92 94 98
22 21 17 13 13 19 23 27 31 34 32 32 32 33 32 33 29 28 26 26 26 21 30 33 33 36 36 31 34 28 21 11 16 48 69 81 91 85 78 76 79 95 83 95
52 29 25 24 21 19 18 23 29 32 34 39 42 41 35 32 30 28 27 25 26 25 24 30 33 38 38 33 33 21 17 12 17 45 64 70 75 74 81 65 75 97 96 94
56 51 48 45 30 25 21 22 21 26 37 49 50 75 54 38 35 29 27 26 25 26 23 23 31 37 41 39 33 22 12 12 17 30 64 75 75 79 71 74 93 99 100 100
38 50 47 42 36 31 30 31 23 32 39 42 64 83 73 44 36 32 28 25 26 26 24 24 34 39 43 42 34 21 10 13 17 22 61 69 82 80 95 99 99 100 100 100
40 43 41 38 35 32 31 31 39 39 41 79 73 76 68 45 34 33 26 25 25 25 26 22 28 33 41 44 34 20 11 15 16 19 49 82 87 90 96 100 99 100 99 99
35 45 39 37 40 43 36 36 52 67 69 71 51 64 70 40 31 35 27 28 25 21 21 21 27 31 37 41 32 14 12 16 15 17 42 80 85 100 100 100 100 85 86 90
31 31 25 20 38 43 42 39 52 68 82 85 61 73 64 55 44 36 28 25 24 24 26 30 34 36 37 39 33 12 12 15 15 16 37 70 88 99 100 98 90 80 93 81
37 34 37 32 22 44 43 44 40 47 47 57 56 46 46 48 43 31 27 26 26 26 30 32 35 36 37 38 34 14 13 14 15 16 19 48 77 89 94 100 96 94 99 96
44 48 40 37 26 31 40 38 45 51 60 57 41 34 51 48 54 47 27 27 26 29 32 35 36 35 34 38 40 17 16 16 16 16 18 23 52 70 84 93 93 95 96 100
61 57 40 48 22 21 24 33 47 46 51 59 52 39 43 58 50 46 40 31 31 31 37 39 35 36 36 38 41 28 18 19 21 18 17 20 21 36 65 78 89 86 83 99
65 63 59 51 45 33 22 27 35 31 35 36 36 37 65 48 67 62 49 48 36 34 35 37 42 38 33 36 34 32 19 22 21 20 19 20 22 21 22 29 53 81 71 88
66 64 65 44 41 54 81 35 27 24 26 32 47 40 41 46 49 62 71 74 54 44 35 38 46 42 37 40 36 30 23 22 22 21 21 21 21 24 25 24 29 38 55 65
44 53 60 64 56 59 62 56 58 61 42 32 29 25 29 37 42 54 66 54 52 51 40 51 50 49 48 49 49 40 31 24 25 23 23 22 22 22 25 27 27 27 29 35
67 50 37 32 43 46 50 46 43 39 62 81 39 43 42 43 40 40 39 56 49 53 46 41 51 66 70 69 69 65 38 28 30 27 29 31 26 25 24 25 27 30 32 32
95 74 72 76 66 63 56 49 46 42 39 41 46 41 39 39 40 36 36 54 50 49 42 41 45 62 69 69 72 76 58 36 34 32 34 35 35 34 36 38 38 30 28 30
84 73 80 80 67 70 64 53 46 46 47 39 42 59 42 37 38 37 34 38 47 47 43 42 49 50 56 78 78 65 48 48 41 42 39 38 40 42 43 43 45 48 48 40
59 74 86 86 68 85 51 47 48 49 57 41 47 62 58 46 38 39 40 38 45 46 45 46 47 49 51 54 59 68 75 57 45 41 46 44 40 44 48 53 56 62 62 62
38 80 89 87 79 60 36 53 62 62 70 63 61 57 53 42 35 41 61 61 74 63 52 53 51 50 50 49 56 54 55 65 58 46 42 42 47 49 50 52 57 62 71 76
56 88 92 89 85 78 71 72 80 77 90 89 78 67 62 54 57 94 81 76 77 88 70 58 56 52 48 46 42 41 60 63 62 63 48 54 52 44 51 59 67 70 70 59
96 96 91 86 96 73 71 75 68 85 99 92 78 74 90 94 98 100 100 99 100 87 78 70 57 56 54 51 49 40 42 57 62 59 57 58 56 55 49 49 51 64 57 42
92 95 97 98 92 84 64 75 69 96 90 60 58 71 61 98 98 99 100 96 96 97 87 69 60 50 53 56 54 56 48 46 55 62 70 63 55 67 55 56 59 56 56 52
90 82 84 75 76 95 92 84 94 65 53 46 50 64 75 54 91 97 99 99 82 68 59 56 60 56 36 39 49 64 61 57 56 61 68 77 74 77 76 64 59 73 82 80
83 95 96 86 96 89 98 92 92 83 77 74 52 43 48 67 67 77 96 97 76 64 66 65 54 43 42 50 58 83 80 69 63 65 78 85 90 83 77 76 74 78 83 93
89 96 98 98 99 100 91 95 75 71 80 87 52 40 32 36 53 52 80 78 84 74 59 53 49 41 38 60 85 98 95 84 78 70 86 98 99 94 94 91 90 88 95 98
86 87 98 97 97 98 95 92 76 60 53 47 49 45 36 37 50 52 42 54 82 74 61 62 55 64 46 47 75 78 93 99 100 99 97 96 99 99 100 98 98 99 100 100

GFSCGP_700_rhum_096.txt.gz
RH
5 10 16 15 14 25 41 46 48 45 41 40 39 36 34 35 34 33 29 28 27 25 25 22 22 27 31 36 35 26 33 26 16 12 19 52 71 95 95 82 96 96 100 90
18 13 11 12 16 24 34 49 46 35 25 29 39 38 37 36 35 33 30 28 27 26 26 24 24 26 31 34 36 30 30 26 11 12 31 60 62 79 99 100 90 98 99 98
17 19 16 16 17 18 15 15 13 16 20 28 34 34 33 34 34 33 32 31 29 28 27 27 25 27 30 31 36 38 30 29 10 14 36 60 66 76 80 89 91 92 97 98
45 32 24 42 42 31 22 25 24 20 19 25 32 43 36 34 26 25 32 32 31 28 27 27 28 27 27 28 38 43 32 30 10 16 26 56 67 72 73 74 75 74 79 99
42 50 34 30 44 49 49 36 29 28 21 22 58 49 39 37 38 29 30 32 30 29 28 28 26 27 26 29 41 46 37 31 10 16 20 44 73 75 85 76 66 79 84 95
32 35 48 50 49 44 41 38 36 38 33 66 52 54 35 43 32 41 34 31 32 30 30 27 27 26 26 35 45 47 38 28 12 17 19 42 72 84 78 70 73 73 80 86
26 28 28 39 44 42 40 43 48 64 70 71 47 53 42 36 50 55 43 32 31 28 28 28 26 26 27 37 42 44 34 18 13 16 19 57 82 88 84 93 96 97 98 100
40 39 27 28 37 38 35 44 44 62 73 60 47 68 58 43 47 62 50 41 32 30 32 28 26 26 25 27 34 44 30 12 14 15 19 58 73 89 98 99 98 100 100 100
33 32 30 29 29 36 37 43 43 41 50 60 51 49 43 43 53 68 56 45 36 27 27 26 26 22 25 34 39 43 28 12 14 15 17 36 64 76 97 99 99 100 100 100
28 51 39 42 41 34 36 34 46 42 63 67 50 43 38 39 85 84 75 47 33 26 24 23 23 24 33 38 42 49 28 14 16 16 16 22 49 70 86 99 97 90 93 94
54 44 51 48 30 29 34 45 44 50 51 65 65 44 61 55 99 95 88 57 46 42 35 28 29 33 34 34 41 49 29 16 19 22 17 20 23 42 70 83 91 95 85 91
65 60 62 49 50 37 28 35 42 51 60 55 54 51 52 70 86 85 90 64 52 50 53 47 38 38 37 36 38 42 33 19 19 22 22 20 22 22 30 53 71 88 88 84
80 73 64 46 51 46 51 42 50 49 46 42 52 42 58 54 75 66 80 67 59 51 55 58 39 38 37 40 39 46 44 24 20 21 22 22 22 24 25 26 44 64 76 79
52 58 57 61 58 52 57 64 52 64 72 66 61 40 44 61 59 66 70 89 71 66 54 55 51 40 38 42 45 54 57 44 23 22 22 22 21 22 24 26 27 30 48 62
48 40 34 43 48 47 44 58 74 50 64 56 59 62 72 65 60 60 78 70 80 75 52 48 50 55 49 50 59 67 67 71 45 28 26 25 22 22 23 25 27 29 29 34
65 67 60 48 58 62 58 56 62 50 50 48 41 54 63 67 63 47 42 52 50 65 55 48 47 58 58 68 71 76 76 74 55 39 31 35 29 27 27 24 25 27 29 31
78 65 61 67 69 61 53 52 49 46 56 64 55 55 55 63 55 41 34 38 55 70 65 55 52 53 54 57 64 72 79 72 66 60 50 44 42 37 32 32 30 30 30 30
58 52 69 78 51 81 52 49 51 65 90 87 92 83 73 61 53 44 32 33 40 55 61 58 54 55 54 54 55 57 51 54 68 61 55 57 53 51 47 40 39 38 37 36
32 39 64 68 84 54 57 72 76 92 98 100 93 79 72 58 48 46 52 42 60 68 65 60 56 56 63 61 59 55 54 53 57 62 60 57 61 56 59 54 51 50 53 58
54 54 56 89 83 85 91 82 68 58 96 98 86 76 64 53 60 88 98 99 99 88 74 68 61 58 61 61 57 54 52 47 45 46 52 58 60 61 56 56 58 66 71 69
94 87 89 94 90 73 73 64 57 68 96 79 75 69 64 80 87 100 100 99 100 95 92 73 67 63 61 60 59 54 52 50 48 42 44 48 60 70 67 65 65 58 62 65
94 92 98 98 91 85 78 67 62 75 73 79 65 62 72 70 70 98 99 99 99 89 82 83 78 66 62 60 57 52 43 44 50 48 47 47 46 52 73 80 83 75 70 71
96 89 89 76 72 71 86 88 82 72 71 63 51 48 44 56 61 78 94 98 99 88 73 64 55 52 46 41 36 32 34 39 48 58 59 55 51 61 61 76 98 100 94 90
97 96 97 98 100 95 100 100 99 91 81 82 77 61 44 35 41 55 72 89 97 94 77 55 46 39 33 32 41 45 46 53 61 73 72 68 61 69 79 84 98 99 97 99
98 100 98 98 98 100 99 92 78 72 64 59 73 70 42 40 36 42 57 63 82 98 86 62 55 49 48 35 47 62 62 68 80 88 82 81 86 94 98 98 99 99 99 100
95 87 84 96 97 99 99 94 85 61 60 58 52 48 50 44 43 45 50 51 62 73 92 78 71 61 65 55 40 44 47 50 74 78 90 90 85 90 98 97 99 100 100 100

GFSCGP_700_rhum_099.txt.gz
RH
8 10 17 27 36 41 42 43 46 47 47 40 35 36 36 37 37 36 35 34 31 29 27 25 25 24 22 24 23 32 38 32 30 32 21 13 14 31 61 60 76 92 89 99
25 10 8 9 20 24 36 44 44 44 37 32 26 18 18 21 32 38 36 35 34 31 30 27 26 24 24 23 26 31 42 39 30 31 19 12 16 49 53 76 75 90 96 98
27 25 18 13 10 18 25 29 30 16 12 15 16 14 18 20 24 29 33 34 33 31 30 28 28 26 25 25 25 29 40 42 34 32 17 12 17 53 52 74 81 82 92 100
38 36 26 28 27 20 19 17 17 16 20 23 24 29 23 24 24 24 22 23 23 29 31 32 29 29 28 27 26 30 41 45 38 34 15 13 17 48 58 73 62 80 98 90
26 49 37 29 21 40 43 41 48 44 37 29 27 40 31 38 31 24 24 28 35 21 31 33 31 28 30 28 28 29 39 47 42 36 14 14 17 32 64 70 78 78 80 92
19 27 48 54 56 54 60 54 46 40 39 52 38 46 33 33 34 34 40 53 52 34 31 33 32 29 29 32 28 29 36 48 43 35 12 16 17 37 64 69 71 74 75 79
13 15 22 44 49 50 46 46 55 66 82 64 42 54 42 43 38 50 49 38 61 40 33 33 32 29 28 28 29 28 38 48 42 26 13 16 19 55 70 83 82 73 67 74
37 30 19 14 20 36 47 45 50 61 68 49 46 68 45 40 44 43 41 40 64 52 42 35 32 28 27 28 30 30 43 50 35 15 15 16 22 60 74 83 80 82 80 89
37 32 22 26 28 24 28 41 42 42 48 63 52 45 42 48 44 39 42 49 62 54 42 34 32 28 28 26 28 37 48 47 31 13 15 17 20 55 71 81 88 99 86 87
50 41 28 39 45 44 36 28 44 51 65 63 52 50 45 42 45 47 61 63 62 55 36 32 30 30 26 27 32 38 55 45 25 14 16 18 20 45 69 78 95 98 98 98
58 51 40 44 46 39 36 39 42 41 46 55 60 51 56 58 56 62 48 99 86 65 57 43 32 26 25 30 36 44 53 42 18 16 18 18 21 23 49 72 87 92 95 99
91 69 64 56 50 55 39 38 44 49 55 55 56 56 54 63 54 54 85 98 87 71 64 65 32 27 29 36 37 43 52 41 19 18 20 19 21 22 24 46 70 78 92 96
92 91 79 63 60 59 57 44 49 48 51 52 60 59 65 56 46 77 94 93 97 73 58 58 42 35 35 37 42 43 51 48 28 19 21 22 21 23 25 25 37 56 71 77
92 79 98 70 60 65 57 62 51 52 64 64 55 56 52 54 72 79 77 85 95 83 54 54 44 44 44 44 46 47 54 64 46 23 21 22 22 22 23 26 26 30 45 58
96 78 95 77 54 47 80 47 63 68 50 61 56 53 58 74 73 68 64 78 95 83 56 48 58 44 47 53 61 58 65 70 55 44 24 22 22 22 22 23 27 28 29 36
80 95 90 85 72 62 48 38 41 36 47 65 73 64 67 93 84 80 69 74 73 92 82 68 57 60 57 60 60 65 72 72 63 58 49 41 36 31 24 23 23 25 28 30
86 82 69 64 61 44 54 60 58 62 62 46 70 92 82 81 82 78 70 68 67 66 88 96 65 57 56 66 67 68 73 78 78 73 65 53 51 47 44 31 25 24 25 29
71 62 57 62 50 74 64 64 71 73 99 98 94 89 76 84 98 81 70 59 58 58 66 74 73 62 61 55 56 57 62 62 79 86 74 71 65 62 57 53 49 31 27 26
48 60 69 68 80 58 96 86 90 92 98 96 92 82 72 66 81 90 71 95 78 68 62 57 62 67 63 60 61 60 58 56 62 57 61 63 72 69 67 65 60 56 55 36
80 59 88 74 87 88 89 79 70 67 98 87 84 91 72 83 96 96 96 99 100 99 80 73 79 71 69 65 64 62 64 63 60 59 51 44 44 60 58 66 64 67 65 62
91 89 91 84 87 68 65 63 60 73 76 75 72 73 79 71 72 74 96 98 99 99 97 87 89 74 67 69 65 63 63 60 58 55 50 45 43 39 41 58 66 78 86 81
96 89 93 93 93 80 56 60 61 65 78 74 73 66 50 64 55 73 96 98 99 100 99 95 89 84 76 69 65 63 61 58 56 56 52 42 47 43 45 54 66 74 78 80
97 96 95 85 80 62 76 82 71 70 60 57 56 56 51 41 41 52 64 98 100 98 98 99 86 70 61 49 42 38 40 42 50 41 34 37 43 48 51 56 58 72 87 90
95 98 96 84 98 94 93 100 88 88 91 89 85 77 72 43 38 35 58 75 98 99 98 94 59 45 37 32 33 43 52 50 50 48 49 54 58 63 62 63 69 90 97 94
90 98 97 98 98 99 99 100 96 78 73 67 60 56 52 43 40 38 37 57 72 92 87 83 70 61 57 49 41 39 37 38 40 59 65 65 80 82 74 69 71 98 99 97
92 95 92 98 98 95 96 94 90 77 70 68 64 57 51 50 46 40 41 49 61 68 75 70 81 80 66 61 56 52 45 48 47 42 60 54 67 81 82 84 88 95 100 98

GFSCGP_700_rhum_102.txt.gz
RH
20 24 18 18 18 24 32 42 46 47 47 45 39 37 37 35 34 37 36 37 37 34 30 30 30 29 26 23 22 22 25 26 33 39 32 32 33 15 13 17 45 60 62 72
20 16 15 15 19 27 38 46 48 47 42 39 36 23 21 19 19 21 22 25 29 31 31 31 31 29 26 25 24 22 24 25 31 43 35 33 31 12 14 19 48 64 72 86
26 24 18 14 13 16 24 39 44 33 22 19 19 15 17 17 16 14 14 17 19 26 28 31 32 30 28 26 24 24 24 26 34 47 41 35 29 12 15 22 54 55 78 92
48 38 37 27 25 18 16 20 24 22 22 23 24 31 29 24 20 17 15 20 24 24 23 25 29 31 28 27 26 26 26 27 33 47 47 38 30 12 16 21 56 63 79 98
31 45 27 35 28 29 25 20 27 42 49 41 36 33 35 30 24 21 23 28 25 32 34 20 20 30 31 29 28 27 27 28 33 44 50 40 25 13 16 20 57 67 72 81
36 37 46 52 45 42 34 50 58 51 45 52 41 34 36 32 32 31 30 29 47 42 32 44 27 23 31 31 29 28 29 30 37 47 52 42 17 14 15 30 64 72 70 81
29 30 24 36 53 59 52 50 56 71 75 58 40 40 33 35 37 37 39 38 41 38 43 52 47 31 30 32 29 28 28 33 42 52 53 38 14 14 16 54 67 76 71 73
37 32 17 11 18 49 53 47 51 64 68 57 47 60 40 38 37 38 44 53 51 42 46 60 54 40 31 34 31 30 29 30 45 54 49 25 14 15 22 58 74 74 74 72
40 33 33 41 44 26 33 45 47 45 45 58 46 42 39 38 36 39 48 43 43 41 61 54 50 40 34 33 32 30 29 30 47 57 45 15 15 17 29 63 72 74 73 69
55 53 38 43 52 43 35 29 41 51 66 61 54 52 44 40 39 38 42 47 47 60 67 58 49 41 34 33 34 35 28 36 56 60 31 15 16 19 26 57 73 81 75 75
68 62 52 40 46 56 48 39 38 44 43 56 53 46 43 47 49 54 58 48 48 65 72 69 53 38 37 37 36 32 34 45 63 52 20 17 18 22 23 42 62 67 68 67
89 77 73 61 62 57 55 57 41 45 56 59 51 48 45 48 52 54 47 47 69 81 96 74 59 43 44 40 36 34 40 56 65 54 18 19 20 23 24 27 41 58 70 72
90 97 87 70 61 65 62 53 43 48 52 49 67 55 53 56 52 50 60 70 73 89 99 73 56 42 43 44 34 36 44 64 67 57 20 20 22 22 25 28 34 42 60 72
97 90 88 74 70 74 65 55 51 56 55 50 50 50 52 52 56 70 82 82 90 90 99 98 79 56 45 36 37 44 50 66 65 60 37 19 21 22 23 28 31 37 43 56
98 98 86 82 75 69 76 64 68 71 59 57 56 57 52 56 64 72 85 85 94 97 99 100 96 63 56 48 43 47 59 66 65 59 52 26 22 21 22 23 28 32 34 41
97 93 96 71 68 92 90 52 64 67 63 81 69 58 57 59 72 93 83 91 88 95 98 99 100 87 70 56 52 58 64 68 70 62 54 54 49 32 25 23 24 27 32 33
97 90 89 75 80 58 60 56 62 59 60 63 63 52 62 78 78 72 79 80 80 84 91 98 96 93 89 72 64 60 65 70 80 76 72 66 60 62 62 52 29 24 24 26
89 80 70 62 51 75 82 63 72 76 85 83 85 89 80 92 98 100 94 99 97 95 84 87 94 99 98 87 79 76 87 93 94 97 92 88 77 72 69 67 66 64 47 27
78 83 75 65 84 64 96 96 96 95 95 96 96 97 90 90 99 97 99 100 99 100 92 98 93 87 99 95 84 70 61 71 69 81 76 86 88 77 70 70 67 67 64 64
94 76 83 72 86 89 90 90 75 74 88 88 95 97 80 75 98 90 84 98 92 96 98 98 98 87 82 77 68 62 63 62 67 78 80 82 77 74 64 60 56 59 64 69
82 98 94 81 81 59 69 91 78 79 80 78 78 77 62 74 68 79 100 99 97 97 98 100 99 92 81 76 70 67 64 63 64 63 61 57 54 53 49 49 48 62 70 71
89 84 92 91 92 85 55 72 74 65 74 86 82 76 52 45 50 66 80 95 100 99 99 100 100 91 78 73 72 70 68 66 65 63 62 61 60 55 52 47 47 47 54 73
94 98 98 72 70 62 85 90 77 80 66 60 60 62 61 50 44 43 56 81 97 99 99 98 97 86 81 66 69 63 56 49 48 41 47 51 48 47 42 36 39 55 54 61
70 85 97 94 94 85 85 100 86 76 87 85 86 85 82 68 45 44 50 70 92 98 98 98 89 76 48 40 40 39 43 47 48 50 51 49 43 42 39 37 49 66 66 62
73 94 97 98 97 98 99 100 98 96 75 65 62 58 55 54 49 42 46 60 88 97 99 98 93 81 68 59 56 51 45 44 42 37 37 52 60 64 74 79 80 81 86 96
93 96 96 96 96 97 97 98 97 84 80 69 64 61 56 54 57 54 44 50 63 80 87 96 98 99 85 69 67 63 64 65 59 52 43 38 37 46 61 67 73 88 100 99

GFSCGP_700_rhum_105.txt.gz
RH
12 15 14 14 18 27 30 33 39 40 43 45 39 38 42 41 37 37 36 34 34 35 34 34 36 34 32 31 30 27 25 25 27 26 29 33 38 35 34 21 14 18 40 66
17 15 19 20 20 19 23 29 41 46 46 42 36 32 32 27 22 21 20 20 21 21 22 26 30 32 33 32 29 26 23 23 24 26 28 30 41 37 36 19 14 19 43 65
30 32 21 27 32 25 23 27 40 41 32 32 32 20 16 17 18 17 16 15 14 17 20 20 19 23 27 30 30 26 25 23 23 26 26 31 45 41 38 17 15 19 34 56
43 28 29 30 25 22 19 17 20 23 44 36 19 18 21 22 19 19 22 24 24 24 27 25 22 20 23 30 30 28 26 24 23 26 26 40 50 47 40 16 15 17 29 62
44 45 42 39 31 29 20 19 20 19 25 27 30 36 30 32 21 23 27 32 25 25 31 30 34 22 18 26 31 29 26 25 25 26 27 43 54 52 41 14 16 20 45 68
42 37 53 50 44 43 31 40 41 46 41 47 43 38 34 32 31 32 35 27 25 23 28 29 27 29 22 18 24 30 27 26 27 26 27 42 56 53 34 15 17 34 60 73
48 43 41 43 43 61 52 44 52 66 56 48 37 41 34 37 36 33 31 26 27 31 35 33 31 22 29 37 25 30 28 28 27 28 27 43 58 53 20 16 22 56 67 79
34 24 21 20 35 34 50 45 42 47 60 44 46 44 42 41 42 39 38 40 39 40 34 33 34 34 26 43 32 29 30 29 28 30 36 47 61 45 16 17 34 60 72 75
42 37 26 35 19 30 51 50 42 41 54 52 46 48 42 40 40 45 49 42 37 34 34 34 35 34 30 37 39 33 31 30 31 35 44 51 60 26 17 18 30 62 78 78
55 47 54 50 50 33 32 39 49 50 53 50 43 49 43 41 43 43 45 43 41 36 40 40 42 34 51 49 43 34 32 33 35 39 50 60 61 17 19 20 34 66 78 80
65 57 59 45 52 42 39 36 39 41 45 38 43 36 44 47 50 45 43 47 44 38 41 43 73 72 63 52 43 35 34 34 36 42 56 67 41 18 22 21 29 64 79 71
90 72 64 53 54 56 58 55 48 42 51 52 43 39 44 50 52 53 49 47 42 48 53 64 99 79 64 50 41 34 35 36 38 52 64 66 20 19 24 24 27 55 74 75
98 93 75 71 77 75 69 59 54 46 44 46 48 46 66 53 52 50 49 51 57 62 68 71 95 93 60 53 39 39 36 37 46 59 61 56 19 20 26 28 28 38 56 72
96 98 81 64 71 64 68 61 57 55 59 52 52 49 58 52 48 49 54 62 63 71 72 78 90 100 78 72 47 41 43 41 56 64 63 40 20 22 25 28 30 34 42 50
100 97 89 73 69 75 64 64 63 59 56 58 56 53 56 53 56 59 56 76 75 66 70 85 91 100 88 70 62 52 43 52 64 62 64 41 23 22 23 24 29 32 34 41
96 96 90 84 81 90 74 70 71 73 71 62 60 61 59 61 47 62 71 70 75 74 75 92 98 98 100 81 72 57 55 59 65 65 67 67 37 25 23 23 24 27 31 34
97 91 82 79 75 58 56 51 59 58 55 60 67 55 54 51 51 74 76 74 78 98 94 97 93 99 100 98 79 55 58 66 69 78 76 71 69 61 48 32 25 25 26 28
95 90 84 77 68 68 87 66 62 65 69 98 98 81 71 82 96 92 88 92 97 99 88 99 87 98 100 100 89 87 82 87 92 90 80 85 77 79 76 74 75 71 59 44
76 91 85 80 80 59 66 100 98 90 91 99 99 96 94 96 99 97 97 96 90 100 97 96 95 98 97 100 99 99 100 100 100 100 96 100 94 84 83 80 74 72 70 65
81 71 91 80 74 72 76 98 87 81 98 98 97 96 88 92 100 98 98 99 100 100 99 99 100 98 97 99 99 100 100 94 91 95 97 87 75 79 78 71 69 56 55 71
92 98 98 91 78 51 56 86 87 88 87 93 89 78 63 65 69 65 81 80 95 100 100 95 98 98 98 98 99 96 88 88 93 97 89 79 76 73 76 66 62 61 60 65
91 95 95 96 87 73 58 62 81 79 80 83 88 80 55 51 46 45 50 70 97 99 100 100 100 100 100 95 88 88 92 70 67 65 64 63 63 62 60 60 58 55 54 55
94 92 96 94 88 70 78 69 70 84 96 84 68 67 71 73 55 46 46 66 98 98 98 98 98 96 96 91 97 77 56 57 57 60 60 52 46 50 59 58 51 50 52 53
82 89 97 98 98 98 86 100 97 90 76 86 89 88 80 75 60 44 46 53 98 98 98 98 96 96 90 74 61 50 46 43 43 43 46 47 49 47 45 44 47 45 45 56
90 90 97 97 100 100 100 97 99 98 97 90 70 66 61 58 58 52 45 51 66 97 98 98 98 99 98 92 72 56 50 46 45 43 38 37 39 46 56 62 73 74 72 87
90 96 96 96 96 97 97 99 97 96 96 84 72 65 63 58 59 60 57 46 52 74 97 99 100 100 99 90 80 71 64 61 60 52 46 44 39 38 38 42 54 59 70 94

GFSCGP_700_rhum_108.txt.gz
RH
13 27 26 27 40 39 35 31 31 30 39 43 41 38 37 38 44 44 43 41 40 39 34 36 36 37 35 33 31 30 28 28 29 27 26 27 27 32 32 42 40 36 16 16
29 22 24 31 35 47 43 37 33 29 45 47 36 34 34 36 38 36 31 27 27 29 27 29 30 31 34 34 34 32 29 29 28 27 26 28 28 31 32 44 40 35 15 17
32 24 28 37 40 45 49 29 25 30 32 40 35 28 25 23 21 20 18 17 18 19 18 16 17 20 20 22 27 32 33 31 28 25 23 27 27 29 32 44 46 36 15 16
35 38 33 31 41 36 41 38 35 42 58 30 24 18 18 21 23 24 25 25 21 16 18 23 25 22 22 20 19 22 29 31 29 25 23 24 26 27 35 52 48 38 14 16
49 38 41 45 44 41 36 32 38 40 37 33 22 22 16 23 24 26 30 34 30 26 23 29 32 31 29 24 21 20 23 31 30 26 24 24 28 28 41 54 50 34 15 17
48 60 44 39 37 40 36 30 41 38 33 29 24 18 16 21 25 28 51 32 27 27 26 26 28 24 23 23 22 21 20 28 30 28 25 24 26 28 43 56 53 24 16 19
40 51 62 64 58 53 42 43 44 50 46 32 32 29 20 30 37 42 54 52 30 28 34 36 31 28 25 22 22 25 23 23 31 29 25 25 26 29 48 58 50 16 16 35
36 37 44 56 54 48 45 41 30 45 39 31 41 34 29 32 45 32 34 31 32 37 37 36 33 29 26 21 20 21 29 19 30 30 26 25 25 33 54 60 36 16 19 54
29 26 31 37 40 36 46 49 37 42 42 40 34 39 42 44 40 38 41 40 43 42 39 30 29 27 33 29 17 19 31 25 29 30 28 27 27 41 60 63 20 17 26 60
60 39 34 38 34 33 37 38 47 39 35 32 19 26 27 56 61 54 54 65 48 38 33 28 32 40 42 29 18 16 27 30 31 31 29 30 32 52 65 43 17 21 36 62
53 58 57 54 44 34 35 46 44 37 34 26 24 27 41 43 56 63 64 54 44 38 36 42 45 52 58 46 32 25 31 36 34 32 30 34 46 61 67 19 20 22 35 57
68 58 53 52 55 44 31 31 38 37 35 38 31 28 59 48 55 54 52 46 45 47 54 59 62 58 53 81 54 35 50 46 37 36 34 41 56 68 48 18 23 23 34 50
93 80 49 52 62 60 60 52 39 42 44 39 40 41 71 59 71 54 51 86 90 78 62 70 60 59 70 91 82 55 56 53 40 41 39 48 63 70 20 21 25 23 30 38
80 91 83 56 60 67 61 62 61 55 46 37 35 35 63 75 88 95 64 52 55 67 80 71 67 91 81 95 100 69 70 52 41 44 43 57 68 47 20 24 27 28 30 38
87 96 94 86 80 65 75 66 60 53 53 51 39 47 57 93 97 57 53 52 60 71 72 71 71 92 83 97 100 79 89 54 45 42 57 60 65 41 21 25 28 30 31 37
94 99 77 84 82 91 78 66 63 58 61 62 58 57 84 99 62 64 49 58 66 75 77 87 65 93 90 100 99 91 97 68 57 55 60 65 60 29 23 23 26 29 32 33
97 96 90 66 76 77 63 64 60 65 79 82 68 84 77 100 53 52 72 77 85 79 70 68 74 92 88 99 100 100 99 85 70 67 71 73 64 34 25 24 24 26 29 32
96 99 94 72 68 64 87 76 85 70 90 95 84 95 99 74 77 94 90 78 84 80 69 77 89 93 89 98 100 100 100 91 99 99 84 82 84 63 34 25 25 26 26 27
96 97 91 74 56 52 61 95 95 87 100 91 94 99 100 95 100 100 90 92 90 78 76 79 86 99 93 98 100 100 100 96 100 89 87 86 84 84 80 72 70 71 67 62
86 80 98 70 59 56 89 98 98 92 99 99 99 86 92 89 100 99 95 82 76 91 92 96 99 97 99 99 98 100 100 100 100 100 100 99 96 96 94 85 80 77 72 75
96 99 98 82 67 55 70 62 89 94 99 97 88 78 70 64 65 57 46 49 75 96 98 96 97 100 88 96 99 99 100 99 100 97 96 93 100 98 95 85 78 69 66 67
93 94 91 87 76 64 69 66 82 94 80 86 79 84 69 55 56 52 49 51 98 96 100 100 100 100 99 96 97 99 99 99 98 99 100 95 89 82 75 73 76 76 68 70
93 86 94 97 97 80 67 94 82 93 93 90 84 70 63 75 76 61 48 56 99 97 97 98 97 96 94 94 98 98 97 95 94 97 99 94 90 84 77 73 69 69 62 58
96 82 96 96 99 100 100 95 98 98 94 80 73 77 79 72 68 55 47 56 90 90 97 97 94 96 96 96 80 74 68 54 58 62 63 60 57 54 50 48 48 53 56 56
82 94 97 98 99 97 97 100 97 98 99 95 87 70 63 58 58 57 57 48 59 95 97 98 98 98 98 95 93 87 75 58 51 52 45 39 40 43 52 64 70 70 68 73
97 97 96 96 98 96 97 98 100 99 98 95 93 76 63 63 62 62 59 59 53 52 77 97 97 98 98 98 96 85 75 73 68 62 55 48 44 44 41 41 44 55 63 87

GFSCGP_700_rhum_111.txt.gz
RH
39 27 28 26 32 36 36 36 33 34 30 38 39 38 34 33 34 36 39 40 39 39 38 38 38 40 41 37 37 28 28 29 28 29 29 29 30 30 27 25 35 34 42 41
35 25 15 26 26 34 38 38 46 36 37 39 36 36 34 32 32 32 35 38 38 36 36 37 37 40 38 34 34 34 33 32 32 30 30 29 29 28 27 27 33 35 40 42
29 20 17 24 26 26 34 38 44 35 36 39 35 35 30 26 27 29 32 34 30 26 25 28 34 62 59 30 32 34 33 33 32 32 31 30 29 27 27 29 32 37 44 43
25 19 20 23 24 27 28 38 42 47 52 54 49 38 28 26 20 21 22 21 21 22 25 32 53 67 72 18 17 18 20 25 30 32 32 31 29 24 26 28 30 32 46 47
34 26 25 26 25 32 32 41 53 52 49 42 35 40 30 20 17 20 21 23 29 38 55 55 64 65 65 49 26 21 22 19 19 22 30 31 30 24 26 28 29 30 46 50
34 33 36 32 28 34 39 42 41 40 41 36 32 26 22 20 22 18 20 30 48 60 62 60 62 65 55 70 24 23 24 24 20 20 24 31 31 25 25 26 28 31 50 53
60 72 35 36 40 42 47 54 55 56 48 41 28 25 21 19 23 26 35 49 61 64 63 64 63 64 67 48 22 19 21 20 23 18 21 30 31 26 25 27 27 35 52 53
34 45 60 48 36 44 44 42 58 60 52 36 27 28 23 21 27 33 44 54 58 61 67 64 69 83 51 58 22 20 18 21 20 19 21 28 31 28 25 26 27 39 54 48
32 33 36 49 45 42 40 35 36 43 46 46 37 29 40 30 34 53 51 48 50 57 62 76 89 64 26 27 24 20 19 16 21 18 25 28 31 28 25 27 28 47 50 28
57 32 29 31 43 39 37 35 36 39 37 34 22 28 30 37 43 50 47 52 55 67 76 87 93 51 31 36 38 27 25 20 17 19 26 28 31 29 28 28 37 51 47 16
80 62 32 27 32 28 29 34 33 29 26 27 29 28 39 44 47 52 50 57 62 74 89 90 97 48 49 44 36 30 22 37 20 18 33 30 32 32 29 31 47 49 28 18
94 66 47 40 35 28 19 28 31 28 26 25 31 63 43 50 50 54 56 67 77 85 91 92 62 64 60 51 41 35 35 50 45 29 41 36 38 35 34 43 56 48 17 19
83 75 90 93 54 35 26 25 35 36 33 41 36 27 50 58 61 69 74 84 83 82 71 65 67 59 59 53 64 54 53 66 50 46 50 42 44 39 43 57 60 24 20 19
77 83 96 84 92 58 50 33 28 32 35 30 32 75 71 64 61 94 83 76 59 54 66 64 67 61 60 64 76 65 89 87 71 64 57 47 54 53 59 71 52 18 22 21
100 96 84 89 87 72 87 72 47 41 42 43 47 53 85 96 79 69 73 62 58 55 74 76 66 48 51 79 81 73 100 100 94 92 59 50 65 63 72 69 22 22 25 26
97 93 82 61 55 59 56 48 46 41 36 38 35 34 82 68 58 66 55 49 53 78 84 70 57 44 59 73 83 89 100 100 97 84 61 54 70 69 73 48 20 25 28 31
97 100 83 56 55 53 50 49 48 43 42 48 49 67 98 91 98 78 64 97 98 81 71 55 57 59 66 83 84 91 100 100 98 96 87 69 66 70 71 30 22 27 30 34
96 100 84 69 59 58 61 74 59 46 68 87 87 98 100 86 79 95 98 100 91 76 70 66 72 67 69 90 84 75 100 100 100 100 100 87 72 80 64 27 24 30 34 34
94 86 87 69 54 52 47 77 92 84 96 82 82 92 99 98 100 100 98 90 75 64 71 74 80 73 84 95 92 95 100 100 100 100 100 99 88 81 74 31 27 31 36 39
89 92 89 77 56 60 98 90 75 87 98 98 97 100 99 99 100 96 79 49 48 66 81 88 94 94 97 94 99 97 99 100 100 100 100 100 92 95 71 44 31 31 31 30
89 95 96 69 60 78 90 84 79 96 98 100 100 85 78 68 56 51 43 40 44 92 100 99 98 100 100 96 98 97 99 99 100 100 100 100 100 99 97 96 85 83 84 80
91 91 94 82 79 80 63 82 78 94 97 100 91 83 77 62 64 71 62 41 63 96 99 100 97 96 96 97 97 98 98 98 98 99 99 100 100 100 100 100 100 96 89 77
91 94 87 100 98 87 83 72 100 100 100 100 93 80 72 75 73 71 66 42 48 92 98 98 98 98 93 96 97 99 98 98 99 99 98 99 100 98 99 99 100 96 97 93
94 81 99 94 95 90 92 91 92 100 100 95 83 81 80 65 58 55 52 45 44 85 94 97 97 97 98 96 96 98 94 89 97 95 92 96 99 99 100 100 99 100 98 93
92 86 91 98 91 89 97 97 95 96 97 96 96 83 71 64 58 56 55 54 50 51 88 95 97 97 97 97 98 96 96 99 76 54 51 46 47 54 66 67 67 67 66 68
91 94 91 95 96 96 95 96 97 98 97 98 99 97 84 70 64 62 59 57 56 55 55 59 97 100 98 98 96 97 95 90 89 91 78 55 45 40 39 42 56 74 91 99

GFSCGP_700_rhum_114.txt.gz
RH
80 52 42 37 47 42 36 33 34 35 34 32 30 32 28 27 29 30 30 32 34 36 36 37 37 36 38 38 36 41 49 58 58 23 25 28 28 27 28 31 32 29 26 33
90 84 40 34 29 36 33 31 32 32 33 41 42 45 33 31 32 31 33 33 34 36 36 36 37 38 39 40 40 41 42 45 46 32 28 31 32 30 28 30 31 30 27 31
98 75 39 38 24 25 27 30 33 34 37 74 57 56 38 36 34 32 32 34 36 38 38 37 37 39 40 40 40 40 40 38 36 36 35 34 32 31 29 29 30 28 27 32
98 52 39 35 27 19 24 26 32 34 40 84 57 42 35 33 33 29 28 28 31 36 35 32 28 35 38 39 35 36 36 35 35 36 35 34 30 32 30 29 29 28 28 32
94 87 48 28 23 17 22 23 28 36 51 69 59 48 42 41 39 35 30 21 24 29 26 22 29 38 62 73 67 68 19 18 19 20 21 23 27 30 32 30 30 27 28 30
91 71 54 25 19 17 22 32 41 47 52 56 51 47 39 38 37 33 26 22 21 22 27 30 45 62 67 66 71 72 38 23 22 20 21 17 16 19 25 31 30 26 28 30
64 68 59 34 26 20 34 39 51 66 57 58 45 44 41 27 26 30 24 21 32 42 60 62 65 64 64 69 77 88 33 20 18 18 22 21 17 16 22 31 31 26 27 29
34 89 52 32 33 26 42 42 53 55 55 43 38 36 35 29 22 24 28 45 60 70 64 62 65 69 77 69 51 32 21 17 16 16 14 19 21 18 23 32 32 27 26 28
84 54 60 42 37 39 43 45 48 50 62 55 36 34 32 25 33 40 44 53 66 61 64 69 81 87 79 43 24 22 19 16 14 17 16 13 16 24 25 32 33 29 27 28
93 89 56 64 41 40 43 48 50 51 52 61 77 33 44 28 44 53 79 50 52 60 67 81 84 88 44 29 27 23 22 18 19 20 21 13 14 26 27 34 38 32 28 30
92 83 50 42 54 57 53 40 42 41 37 38 50 67 45 41 36 58 46 49 55 65 77 78 78 65 40 37 31 29 26 24 25 26 25 15 14 24 32 36 44 34 30 35
96 92 82 43 27 29 34 35 38 42 37 29 31 49 53 50 46 50 58 68 71 92 85 82 70 56 53 49 41 35 29 24 22 26 34 25 25 25 40 40 64 39 34 50
81 85 88 63 47 28 24 23 28 37 30 44 46 36 40 72 62 74 55 69 72 67 52 57 55 49 47 50 44 34 32 28 30 35 55 47 34 29 45 62 85 37 52 64
96 95 98 98 97 93 40 20 21 27 36 36 51 55 75 84 92 76 65 59 48 56 54 46 44 44 52 50 42 39 47 56 56 52 78 57 44 42 49 88 59 46 74 75
99 99 84 81 69 85 89 54 50 26 33 34 77 76 87 78 65 86 66 68 66 47 38 36 42 50 52 41 42 55 56 64 62 99 100 90 65 59 56 84 58 80 87 45
97 95 79 66 45 53 80 69 68 55 40 55 52 63 79 98 94 85 71 61 54 45 55 66 56 47 44 58 59 57 70 71 75 100 99 100 99 89 100 100 90 100 88 27
94 94 92 56 52 47 42 45 44 38 38 48 56 95 99 99 95 88 73 55 60 87 73 60 59 61 66 68 68 67 70 69 94 100 99 100 100 100 100 100 92 99 46 34
92 93 89 77 61 50 81 64 63 59 74 75 100 100 100 90 85 92 80 92 88 72 53 57 69 74 86 79 74 70 70 68 83 100 98 100 100 100 100 100 98 91 36 48
86 96 91 76 64 51 76 82 81 83 95 100 99 93 76 73 85 92 95 85 49 38 50 72 88 99 100 92 84 72 78 75 100 100 100 98 100 100 100 98 99 47 45 62
91 92 84 73 68 66 99 99 63 79 98 98 99 100 100 76 92 68 52 46 43 70 94 100 100 100 100 95 90 83 85 86 99 100 100 100 100 100 100 100 72 40 43 42
92 93 87 71 65 96 70 54 59 95 98 97 95 98 89 72 64 66 67 52 52 98 99 100 98 95 92 92 90 92 94 100 98 99 100 100 100 100 100 82 72 56 43 44
88 95 92 90 81 90 86 77 77 99 94 96 97 96 79 71 74 74 69 55 58 98 97 100 96 95 94 99 91 93 95 97 98 98 99 99 100 100 100 98 99 88 53 47
95 94 84 96 94 98 100 100 100 100 92 99 97 88 77 75 67 64 62 55 53 64 92 96 98 97 98 98 96 92 96 97 98 98 98 99 99 99 100 100 100 91 71 95
96 91 99 100 96 89 84 100 99 100 97 96 95 89 81 68 63 62 62 60 55 50 76 97 90 98 97 97 96 97 97 96 96 96 98 98 98 99 99 99 99 99 100 99
95 85 79 97 90 96 86 95 97 98 96 97 96 98 89 74 68 67 62 60 59 58 57 70 92 78 83 96 97 96 97 97 98 98 95 93 98 96 96 98 98 99 99 99
90 77 75 89 93 93 97 97 95 96 96 96 97 99 99 96 75 67 61 57 58 58 59 60 61 65 80 97 94 92 95 97 97 96 97 95 72 60 68 85 98 99 100 95

GFSCGP_700_rhum_117.txt.gz
RH
49 66 56 31 38 47 46 47 33 34 39 36 34 34 33 32 31 31 34 33 32 33 32 32 32 32 34 30 30 31 34 36 45 49 51 49 39 30 28 30 31 29 31 33
88 94 64 49 47 65 48 43 43 35 37 36 34 38 33 31 31 30 29 30 30 32 34 36 34 34 33 31 32 33 33 38 52 52 50 50 47 36 30 32 31 30 30 32
80 72 78 66 70 83 51 42 40 44 38 49 56 45 46 38 33 33 29 29 32 33 35 37 37 38 36 34 37 37 35 41 46 50 51 42 41 35 30 29 30 32 31 31
61 56 91 77 71 78 47 33 34 34 36 55 65 54 46 44 41 36 34 33 32 33 33 36 38 38 38 38 38 39 39 39 42 44 45 40 37 34 34 34 33 34 32 32
38 79 98 98 63 67 43 27 29 27 32 62 83 83 49 48 44 36 34 33 32 33 36 38 38 37 42 42 41 41 40 40 41 41 42 41 38 33 32 30 31 33 34 32
42 43 82 83 69 52 44 34 32 36 59 96 62 64 49 41 42 36 34 34 31 29 34 42 45 38 43 48 46 41 39 38 37 33 33 27 24 23 20 19 20 22 29 33
48 50 57 64 64 52 39 31 62 88 92 79 47 53 43 33 30 32 29 30 33 35 41 43 46 52 65 70 71 54 57 36 27 21 18 23 21 22 20 18 20 19 23 31
74 86 96 55 74 42 31 38 70 91 78 58 44 52 36 26 28 30 33 36 36 35 41 48 56 62 66 67 72 78 68 44 30 25 20 19 20 19 16 19 22 23 23 30
97 81 61 73 85 59 46 47 45 52 58 63 40 38 35 35 36 40 42 47 46 58 62 61 59 57 67 67 68 63 64 45 21 16 15 16 15 15 14 16 20 26 23 30
96 89 53 64 56 45 30 40 50 68 88 86 79 43 36 49 52 65 58 60 75 72 64 62 67 69 66 49 46 51 30 23 21 20 16 14 14 11 12 16 19 30 24 29
96 90 63 76 80 53 46 45 54 87 59 66 95 83 77 58 50 77 69 77 98 83 67 71 72 65 61 59 34 26 31 30 25 24 22 20 18 14 18 19 20 31 30 29
93 96 87 70 61 59 57 52 53 59 60 42 48 94 97 74 85 60 59 71 97 90 75 72 73 67 60 43 37 35 41 35 29 29 26 24 24 23 24 26 23 35 44 34
92 93 85 59 42 54 70 49 46 44 49 39 58 81 79 93 93 100 83 87 94 72 73 64 52 63 62 39 31 26 35 31 27 28 34 32 30 32 49 56 33 39 72 42
78 88 97 95 91 97 85 57 28 35 44 39 51 81 90 85 98 98 100 90 73 69 71 67 60 48 38 34 20 18 33 29 23 25 38 49 44 60 94 95 45 56 69 67
77 80 84 74 90 95 100 69 69 39 38 39 55 74 97 97 99 98 95 86 78 69 64 51 41 34 25 20 31 32 29 26 37 40 43 58 54 98 92 76 64 84 98 100
74 81 76 57 82 72 85 68 61 59 53 64 73 95 99 98 94 98 83 62 59 49 38 41 45 36 35 33 36 36 42 52 46 53 58 61 82 99 100 82 80 98 99 100
89 82 90 81 56 74 93 89 59 95 90 82 80 95 100 99 90 82 77 55 42 46 60 53 46 37 30 32 47 56 49 48 53 57 53 68 99 99 100 100 89 98 98 98
78 77 86 81 68 78 98 96 99 98 98 98 99 99 98 97 79 84 96 90 69 44 35 37 46 51 53 57 64 64 58 50 50 53 62 82 100 100 100 92 91 100 99 100
85 87 87 85 76 78 78 68 79 99 99 98 98 98 99 98 98 87 58 48 42 40 54 66 66 65 66 68 73 73 66 56 57 57 78 100 100 99 100 100 99 98 98 94
77 78 87 80 76 96 93 63 73 99 94 95 97 98 98 100 84 58 66 62 50 62 78 78 76 76 82 84 87 94 86 90 90 85 97 100 100 100 100 100 100 100 98 98
67 80 79 76 81 98 90 56 86 88 100 96 94 95 96 73 68 70 72 67 58 43 56 75 90 88 90 93 98 98 97 93 96 98 95 99 100 100 100 100 100 100 100 99
96 83 85 83 82 94 75 68 74 100 100 99 85 96 92 77 73 71 68 65 56 44 73 87 93 95 98 99 98 98 98 91 98 98 96 98 99 99 100 100 100 100 100 100
96 86 94 84 97 96 87 94 96 99 100 98 94 90 84 76 65 62 61 56 53 48 66 100 93 99 93 96 93 93 99 97 89 96 97 97 98 99 99 100 100 100 100 99
94 82 77 96 82 80 86 91 97 98 98 97 98 96 90 81 66 64 63 61 59 57 58 81 95 90 93 87 91 72 91 96 94 88 94 98 98 99 99 99 99 99 100 96
96 89 74 94 91 87 92 96 97 99 98 96 96 97 95 94 80 70 65 61 61 61 63 71 73 83 87 92 72 68 84 91 97 96 95 95 98 98 98 98 98 99 99 99
86 83 78 95 98 95 96 95 96 96 98 96 94 94 95 95 90 83 69 65 64 60 57 56 58 62 63 68 66 64 85 84 79 84 96 96 96 98 97 98 99 98 98 98

GFSCGP_700_rhum_123.txt.gz
RH
39 38 18 25 41 42 48 60 58 44 41 36 42 49 42 16 20 38 42 23 32 36 34 36 35 33 45 41 36 44 36 24 37 48 49 50 58 67 59 48 48 50 50 34
54 35 32 34 42 56 58 67 69 67 56 67 53 68 58 26 28 34 36 38 35 37 36 36 36 34 32 32 28 30 28 26 25 35 42 37 40 51 45 59 69 60 48 44
52 20 38 45 48 54 57 66 80 83 81 88 74 64 50 23 36 24 40 34 35 37 36 36 35 35 34 32 31 29 29 30 30 28 34 36 35 46 74 82 68 60 57 50
44 46 50 60 73 77 82 74 95 97 100 91 68 65 51 30 60 36 32 38 37 36 35 34 33 37 39 33 34 34 33 35 34 31 31 32 40 54 59 75 64 69 59 49
58 49 49 59 70 84 89 96 99 84 99 84 75 80 50 47 53 56 46 40 37 38 35 32 32 32 38 34 33 33 34 36 35 34 32 36 46 74 98 84 70 58 52 48
52 37 48 53 62 80 80 99 78 89 97 95 57 74 53 50 40 43 50 50 40 37 36 34 32 31 32 36 37 34 34 35 36 43 42 50 61 73 78 66 51 51 48 45
53 38 53 71 80 66 66 81 88 90 98 84 48 52 43 47 52 55 54 49 50 38 35 34 32 31 38 37 38 37 40 41 44 42 46 50 60 68 63 58 51 49 48 42
85 73 58 66 80 94 97 61 72 87 90 75 64 65 56 54 56 71 56 56 52 45 38 37 49 44 50 45 47 50 51 48 47 53 63 68 65 58 54 47 43 40 38 37
90 83 57 65 87 99 81 69 51 66 71 96 77 65 63 65 55 58 83 70 70 67 77 75 63 65 59 58 65 66 64 62 56 57 60 57 53 48 45 42 36 30 25 29
55 95 52 66 74 75 89 68 64 62 96 83 79 88 99 100 94 71 77 82 85 75 64 64 65 74 79 73 72 75 73 75 70 66 62 54 50 47 38 36 30 24 20 16
64 94 62 73 95 85 86 93 85 97 96 96 96 96 98 98 100 100 85 87 95 92 71 64 74 84 74 74 81 80 81 82 80 66 54 48 42 38 35 33 30 18 15 12
76 94 100 70 80 68 90 98 95 100 89 89 94 98 98 99 99 100 100 100 100 99 94 91 92 86 94 95 97 94 84 71 65 57 47 36 33 26 18 18 18 13 11 13
76 68 95 59 59 65 79 87 98 100 100 96 97 98 97 98 99 100 100 100 100 100 100 100 99 100 98 85 66 60 54 47 42 27 22 21 16 15 19 23 23 21 20 18
88 74 72 94 89 98 98 95 100 100 96 88 98 97 98 98 98 98 98 99 99 99 99 100 100 96 83 80 71 61 51 33 24 22 20 18 13 16 19 20 20 22 22 25
89 79 78 79 94 95 100 98 99 100 100 92 99 96 97 97 98 98 98 99 94 98 99 99 97 74 68 61 42 30 26 16 17 17 15 15 17 18 16 20 23 25 33 33
90 78 88 63 93 92 93 97 98 91 99 99 98 93 98 100 100 89 89 94 96 83 73 68 39 34 37 36 36 33 28 27 26 23 18 17 16 16 17 17 17 26 42 53
76 84 95 81 80 97 81 98 96 98 96 98 98 99 98 98 96 98 90 78 76 47 44 45 45 53 55 53 52 49 44 44 42 38 36 30 22 20 18 16 20 36 53 64
83 92 93 87 90 89 96 96 96 97 97 97 97 97 98 99 100 82 66 56 50 45 50 61 64 59 56 54 53 52 52 50 50 47 45 42 38 33 28 22 27 36 64 79
84 98 92 90 94 93 82 92 97 97 95 96 93 96 100 100 100 78 72 66 61 55 40 37 38 55 62 60 61 61 57 57 56 53 51 50 43 39 36 35 35 50 80 95
78 81 97 91 93 95 73 81 100 100 100 88 94 95 90 91 73 70 70 67 65 63 54 48 51 63 70 71 68 64 57 58 60 57 52 56 55 52 51 47 51 80 86 98
72 68 75 78 97 95 68 70 96 89 98 92 96 98 94 85 77 70 65 62 61 58 53 46 46 53 72 74 69 55 51 61 52 59 60 59 63 63 58 64 81 98 100 95
90 98 100 91 86 90 73 66 78 96 100 100 92 90 94 88 76 67 60 57 56 54 53 49 43 42 49 56 60 50 38 38 57 59 65 62 65 62 64 70 89 100 99 97
90 80 98 97 90 82 84 89 92 93 96 99 94 90 94 96 94 84 74 68 60 56 54 52 52 48 45 44 42 43 41 38 47 53 62 70 70 71 66 77 84 99 99 99
87 91 79 90 71 84 88 90 93 96 98 98 97 93 89 95 97 97 92 79 70 61 58 56 53 49 46 46 46 45 44 41 37 44 60 64 78 83 70 83 96 99 100 100
87 89 74 73 83 83 81 82 84 91 94 92 97 96 90 93 96 96 100 96 85 74 67 63 61 56 50 45 42 42 39 40 41 45 66 77 75 90 85 87 94 96 98 99
92 92 74 81 85 85 88 92 94 94 94 93 93 95 94 94 96 96 98 100 93 80 71 65 63 59 55 48 45 43 41 39 42 49 60 85 83 82 94 95 95 97 97 97